Diretta Meteo Palermo-Punta Raisi, Italiasabato 20 luglio ore 02:50

Mappa
Sereno 23 °C Sereno 24 Ore: T.min 21 T.max 27
Ponente Nord Km/h 5.5 Punto di rugiada: 16 °C Umidità: 64% Visibilità: 10 Km
Il sole sorge alle: 05:59 Il sole tramonta alle: 20:28
20 Luglio 2019 02:50 tempo osservato: Sereno Sereno 23 64 1016 vento: Nord N 5.5
20 Luglio 2019 02:20 tempo osservato: Sereno Sereno 22 73 1016 vento: Nord N 5.5
20 Luglio 2019 01:50 tempo osservato: Sereno Sereno 24 69 1016 vento: Nord N 1.8
20 Luglio 2019 01:20 tempo osservato: Sereno Sereno 24 69 1016 vento: Nord N 3.7
20 Luglio 2019 00:50 tempo osservato: Sereno Sereno 24 64 1016 vento: Nord N 3.7
20 Luglio 2019 00:20 tempo osservato: Sereno Sereno 25 57 1016 vento: Nord E 14.8
19 Luglio 2019 23:50 tempo osservato: Sereno Sereno 25 61 1016 vento: Nord NE 16.7
19 Luglio 2019 23:20 tempo osservato: Sereno Sereno 25 65 1016 vento: Nord E/NE 16.7
19 Luglio 2019 22:50 tempo osservato: Sereno Sereno 25 61 1016 vento: Nord E/NE 18.5
19 Luglio 2019 22:20 tempo osservato: Sereno Sereno 25 69 1016 vento: Nord E/NE 20.3
19 Luglio 2019 21:50 tempo osservato: Sereno Sereno 26 65 1016 vento: Nord E/NE 20.3
19 Luglio 2019 21:20 tempo osservato: Sereno Sereno 25 69 1015 vento: Nord E/NE 25.9
19 Luglio 2019 20:50 tempo osservato: Sereno Sereno 25 73 1015 vento: Nord E/NE 27.8
19 Luglio 2019 20:20 tempo osservato: Sereno Sereno 26 65 1015 vento: Nord E/NE 27.8
19 Luglio 2019 19:50 tempo osservato: Sereno Sereno 26 69 1015 vento: Nord NE 27.8
19 Luglio 2019 19:20 tempo osservato: Poco Nuvoloso Poco Nuvoloso 26 69 1015 vento: Nord NE 29.6
19 Luglio 2019 18:50 tempo osservato: Poco Nuvoloso Poco Nuvoloso 27 61 1015 vento: Nord NE 29.6
19 Luglio 2019 18:20 tempo osservato: Poco Nuvoloso Poco Nuvoloso 27 61 1015 vento: Nord NE 33.3
19 Luglio 2019 17:50 tempo osservato: Poco Nuvoloso Poco Nuvoloso 27 61 1015 vento: Nord NE 29.6
19 Luglio 2019 17:20 tempo osservato: Poco Nuvoloso Poco Nuvoloso 27 61 1015 vento: Nord NE 33.3
19 Luglio 2019 16:50 tempo osservato: Poco Nuvoloso Poco Nuvoloso 27 57 1015 vento: Nord NE 33.3
19 Luglio 2019 16:20 tempo osservato: Poco Nuvoloso Poco Nuvoloso 27 61 1015 vento: Nord NE 31.5
19 Luglio 2019 15:50 tempo osservato: Poco Nuvoloso Poco Nuvoloso 27 65 1015 vento: Nord NE 33.3
19 Luglio 2019 15:20 tempo osservato: Poco Nuvoloso Poco Nuvoloso 27 65 1015 vento: Nord NE 31.5
19 Luglio 2019 14:50 tempo osservato: Sereno Sereno 27 61 1015 vento: Nord NE 29.6
19 Luglio 2019 14:20 tempo osservato: Sereno Sereno 27 61 1015 vento: Nord NE 29.6
19 Luglio 2019 13:50 tempo osservato: Sereno Sereno 27 57 1016 vento: Nord NE 27.8
19 Luglio 2019 13:20 tempo osservato: Sereno Sereno 27 54 1016 vento: Nord NE 25.9
19 Luglio 2019 12:50 tempo osservato: Sereno Sereno 27 57 1016 vento: Nord NE 22.2
19 Luglio 2019 12:20 tempo osservato: Sereno Sereno 27 57 1016 vento: Nord NE 22.2
19 Luglio 2019 11:50 tempo osservato: Sereno Sereno 26 57 1016 vento: Nord NE 18.5
19 Luglio 2019 11:20 tempo osservato: Sereno Sereno 26 61 1016 vento: Nord N/NE 14.8
19 Luglio 2019 10:50 tempo osservato: Sereno Sereno 26 69 1016 vento: Nord N 5.5
19 Luglio 2019 10:20 tempo osservato: Sereno Sereno 25 69 1016 vento: Nord O 7.4
19 Luglio 2019 09:50 tempo osservato: Sereno Sereno 24 73 1016 vento: Nord O 9.3
19 Luglio 2019 09:20 tempo osservato: Sereno Sereno 24 69 1015 vento: Nord O 7.4
19 Luglio 2019 08:50 tempo osservato: Sereno Sereno 24 64 1015 vento: Nord O/SO 7.4
19 Luglio 2019 08:20 tempo osservato: Sereno Sereno 24 64 1015 vento: Nord N 1.8
19 Luglio 2019 07:50 tempo osservato: Sereno Sereno 24 69 1015 vento: Nord N 3.7
19 Luglio 2019 07:20 tempo osservato: Sereno Sereno 23 73 1015 vento: Nord N 3.7
19 Luglio 2019 06:50 tempo osservato: Sereno Sereno 23 73 1014 vento: Nord N 5.5
19 Luglio 2019 06:20 tempo osservato: Sereno Sereno 21 73 1014 vento: Nord SE 7.4
19 Luglio 2019 05:50 tempo osservato: Sereno Sereno 22 68 1015 vento: Nord N 5.5
19 Luglio 2019 05:20 tempo osservato: Sereno Sereno 21 68 1014 vento: Nord N 5.5
19 Luglio 2019 04:50 tempo osservato: Sereno Sereno 21 68 1014 vento: Nord S/SE 7.4
19 Luglio 2019 04:20 tempo osservato: Sereno Sereno 21 73 1014 vento: Nord S/SE 9.3
19 Luglio 2019 03:50 tempo osservato: Sereno Sereno 21 73 1014 vento: Nord S 7.4